This is the latest recevied weather packets stored in our database for station/object VK3AFQ-13. If no packets are shown the sender has not sent any weather packets the latest 10 day(s).
| Time | Temp. | Humidity | Pressure | Rain* | Wind** | Luminosity | Snow |
|---|---|---|---|---|---|---|---|
| 1777770062 | 13.33° C | 95% | 1014.1 hPa | - | - | - | - |
| 1777769164 | 13.33° C | 96% | 1014 hPa | - | - | - | - |
| 1777768264 | 13.33° C | 95% | 1013.9 hPa | - | - | - | - |
| 1777767364 | 13.33° C | 95% | 1014.3 hPa | - | - | - | - |
| 1777766462 | 13.33° C | 95% | 1014.5 hPa | - | - | - | - |
| 1777765564 | 13.89° C | 94% | 1014.1 hPa | - | - | - | - |
| 1777764664 | 15.56° C | 96% | 1013.4 hPa | - | - | - | - |
| 1777763764 | 15.56° C | 96% | 1013.6 hPa | - | - | - | - |
| 1777762862 | 15.56° C | 95% | 1013 hPa | - | - | - | - |
| 1777761964 | 15.56° C | 95% | 1013.5 hPa | - | - | - | - |
| 1777761064 | 15.56° C | 95% | 1012.8 hPa | - | - | - | - |
| 1777760164 | 15.56° C | 95% | 1012.7 hPa | - | - | - | - |
| 1777759262 | 15.56° C | 94% | 1012.5 hPa | - | - | - | - |
| 1777758364 | 15.56° C | 94% | 1012.8 hPa | - | - | - | - |
| 1777757464 | 15.56° C | 92% | 1012.3 hPa | - | - | - | - |
| 1777756563 | 16.67° C | 88% | 1012.3 hPa | - | - | - | - |
| 1777755662 | 16.11° C | 89% | 1011.8 hPa | - | - | - | - |
| 1777754763 | 16.11° C | 90% | 1011.7 hPa | - | - | - | - |
| 1777753864 | 16.11° C | 90% | 1011.8 hPa | - | - | - | - |
| 1777752963 | 16.11° C | 89% | 1011.9 hPa | - | - | - | - |
| 1777752062 | 16.11° C | 89% | 1011.9 hPa | - | - | - | - |
| 1777751164 | 16.11° C | 90% | 1011.8 hPa | - | - | - | - |
| 1777750264 | 16.11° C | 91% | 1011.8 hPa | - | - | - | - |
| 1777749364 | 15.56° C | 92% | 1012 hPa | - | - | - | - |
| 1777748462 | 15.56° C | 92% | 1012.1 hPa | - | - | - | - |
* Rain since midnight (hover to see other rain measurements)
** Current wind speed in m/s (hover to see current wind gust speed)